Lid_Strength_Index
1 1 1 1 0 0 0 0 0 0 0 0 0 0 0 0 1 1 4 2 1 -1 -0 4 4 4 5 6 6 8 12 14 14 13 12 10 11 10 9 11 10 10 9 7 6
0 0 1 1 1 1 1 0 0 0 0 0 1 1 1 1 3 4 1 -0 -1 -1 4 6 7 6 7 7 7 10 12 12 11 12 12 10 10 10 11 11 10 10 8 7 6
1 1 2 1 1 1 1 1 0 0 0 0 1 1 1 2 5 5 1 -0 -0 0 3 5 6 6 8 7 8 9 11 10 9 8 8 9 10 8 10 11 10 10 9 8 7
2 2 2 2 2 2 2 1 1 1 1 1 1 1 1 3 14 3 1 1 0 1 3 5 7 9 10 9 7 11 8 8 7 7 8 9 8 10 9 10 8 8 7 8 8
2 3 2 2 2 3 2 2 2 1 1 1 1 1 3 7 7 2 1 1 2 2 4 5 7 9 10 10 8 9 9 7 7 7 8 7 9 10 9 8 8 7 7 8 8
3 3 3 3 3 3 4 3 2 2 1 1 2 2 5 11 3 2 3 3 3 3 4 5 7 6 9 9 9 8 8 8 7 7 8 9 9 9 9 8 8 7 8 8 7
3 3 4 4 4 4 4 3 2 2 2 2 2 3 7 8 3 3 3 4 3 3 4 4 4 6 7 9 7 7 10 9 8 8 9 9 11 11 9 8 8 8 8 7 6
3 4 4 4 4 4 4 3 3 2 2 3 2 5 9 3 4 3 3 4 3 2 2 3 4 6 7 7 8 10 10 13 9 9 8 10 13 9 8 9 9 9 8 7 6
4 4 4 4 4 4 4 3 2 2 3 3 5 7 10 3 5 4 3 5 4 3 3 3 4 7 8 11 13 11 15 13 11 9 9 11 12 9 8 9 10 10 8 8 7
4 4 4 4 4 4 3 3 2 4 4 4 5 10 8 8 5 5 4 4 5 5 5 6 7 11 11 12 18 15 15 13 12 10 10 12 12 10 9 9 10 11 10 9 8
4 4 5 4 4 3 4 7 10 11 10 11 11 10 8 7 5 5 4 5 6 7 11 8 12 15 11 11 11 12 13 14 11 9 12 13 12 11 10 11 11 11 10 9 8
4 5 5 5 4 3 5 9 10 9 12 8 9 9 8 7 9 6 5 9 9 12 10 11 14 11 9 9 10 12 14 14 12 10 12 12 13 11 11 11 10 11 11 9 8
5 5 5 5 4 5 8 8 6 7 13 11 10 9 8 7 10 8 6 8 11 13 12 13 11 8 9 11 11 13 14 14 14 11 12 13 15 13 11 10 9 10 9 9 8
5 5 5 5 6 7 8 6 6 7 18 17 11 9 8 8 10 6 5 8 10 13 12 12 9 9 10 11 11 15 11 11 12 15 19 14 21 15 13 12 10 10 11 11 10
5 5 5 5 9 9 7 6 6 9 26 14 10 6 7 10 9 8 5 8 12 12 12 14 11 11 11 11 10 12 9 11 12 16 19 17 20 17 13 14 12 12 11 11 10
5 6 5 7 7 7 6 6 8 19 26 18 10 11 11 10 9 7 8 7 8 11 12 12 9 9 10 9 9 9 11 12 14 17 24 19 19 18 15 13 12 12 11 10 10
6 6 6 6 10 6 7 9 20 25 15 16 14 12 12 12 10 9 10 12 14 18 17 14 12 10 9 11 9 11 15 21 21 24 22 16 18 16 14 12 11 11 11 10 10
6 6 6 6 7 7 9 15 22 18 17 13 13 13 14 12 11 11 12 13 12 14 17 19 20 12 10 11 13 13 14 19 27 22 20 16 19 16 12 11 10 10 10 10 9
6 8 7 7 6 8 12 20 20 16 14 14 13 16 15 11 13 12 12 13 12 12 17 18 16 10 10 9 10 13 16 13 18 18 21 19 16 13 11 11 10 10 10 10 10
8 10 9 7 7 10 15 17 16 12 12 13 17 15 17 15 14 14 14 12 12 11 12 14 18 11 10 10 10 12 12 17 17 23 23 21 18 17 13 12 11 11 11 11 11
10 13 10 6 8 13 19 17 13 11 11 13 15 15 14 14 14 14 14 12 11 11 11 13 15 15 11 12 14 14 15 15 16 18 24 23 19 12 12 11 11 11 10 10 11
10 17 9 7 15 15 17 14 11 12 11 12 12 12 14 13 14 14 14 12 10 10 13 12 14 17 14 11 11 12 14 14 20 20 19 20 18 11 10 10 10 10 10 11 11
13 12 9 9 19 17 14 14 13 13 13 12 12 11 11 12 14 13 12 9 9 10 12 11 15 20 17 13 11 13 12 11 13 15 17 20 17 10 10 10 10 12 11 11 10
12 16 12 11 12 14 15 15 15 11 12 12 12 10 12 13 11 12 12 9 9 9 7 9 13 16 19 15 13 14 13 12 13 18 17 16 14 12 11 12 12 12 11 12 11
12 16 13 16 15 15 15 15 15 15 12 11 12 12 12 13 13 13 11 10 9 8 10 11 15 14 13 12 12 12 12 12 13 13 16 14 13 12 11 12 12 11 11 11 11
14 15 13 16 14 15 15 16 15 14 14 13 14 13 12 13 12 13 12 11 11 11 12 10 15 14 16 12 12 13 12 12 12 12 13 12 13 10 11 11 12 11 11 11 11
11 11 13 15 15 16 16 15 15 13 13 12 13 13 13 12 10 11 11 11 11 12 13 13 13 16 18 15 15 17 14 12 12 11 11 14 12 11 13 12 12 12 11 12 11